星链-32714 (STARLINK-32714)

导读

STARLINK-32714是美国星链计划中的一颗卫星,于2025年1月6日北京时间8时发射升空。作为 SpaceX 星链星座组网的一员,它主要服务于全球卫星互联网项目,为偏远地区、网络基础设施薄弱区域等提供高速低延迟的互联网接入服务,进一步推进星链星座的全球覆盖布局。

基本信息
目录编号:
62499
目录名称:
STARLINK-32714
国际标识:
2025-003N
轨道中心:
EARTH
卫星名称:
星链-32714
卫星全名:
星链-32714 (STARLINK-32714)
卫星状态:
在轨 (已飞行524 天)
发射日期:
2025-01-06 UTC
国别 :
美国 (US)
星等 :
--
轨道信息
数据来源 国际轨道数据 AOE轨道数据
星历时间 2026-06-12T11:33:15+0800
2天前
查看轨道信息
2026-06-10T07:00:00+0800
4天前
查看轨道信息
半长轴 6861.109km 6861.203km
偏心率 0.000123 0.0000066
轨道倾角 43.004° 42.992°
近地点辐角 267.082° 303.072°
升交点赤经 115.877° 128.238°
平近点角 92.989° 240.758°
近地点 482.128km 483.02km
远地点 483.816km 483.112km
周期 94.265分钟 94.267分钟
每日圈数 15.276058 15.275746
详细信息
固有亮度:
5
最大亮度:
2.5
卫星平台:
Starlink V1.0
覆盖范围:
全球
运营商:
太空探索技术公司
运营商所在国:
美国
制造商(研发单位):
太空探索技术公司
制造商所在国:
美国
使用方式:
暂无
卫星简介
Starlink 计划是 SpaceX 推出的全球卫星互联网项目,通过发射低轨道卫星,为全球尤其是偏远地区提供高速、低延迟的互联网服务。自 2019 年起,Starlink 已部署数千颗卫星,旨在缩小全球数字鸿沟,推动互联网普及。该项目还为军事、航空等行业提供通信支持,带来广泛经济效益。
2D轨道图
3D轨道图
轨道高度分析图
轨道倾角分析图
轨道综合分析图
查看轨道综合分析图